Location: Bothwell
(42.3833°S, 147.0000°E)
Time: 20:14:52
(UTC+11:00)

AO-85 - Pass Details

Date: 04 October 2022
Orbit: 513 x 757 km, 64.8° (Epoch: 24 November)

Event Time Altitude Azimuth Distance (km) Brightness Sun altitude
Rises 22:05:25 0° 282° (WNW) 2,767 ? -28.6°
Reaches altitude 10° 22:08:12 10° 261° (W) 1,921 ? -29.0°
Maximum altitude 22:11:09 18° 218° (SW) 1,539 ? -29.5°
Drops below altitude 10° 22:14:16 10° 176° (S) 2,038 ? -29.9°
Sets 22:17:22 0° 156° (SSE) 3,010 ? -30.3°
